State College, PA

12:23 PM EDT on October 23, 2019 (GMT -0400)
University Park

Weather History for KUNV - September, 2019

Change the Weather History Date:

Saturday, September 21, 2019

  Actual Average Record
Temperature  
Mean Temperature 66 °F -  
Max Temperature 82 °F 71 °F 89 °F (1931)
Min Temperature 50 °F 50 °F 32 °F (1956)
Cooling Degree Days 1    
Growing Degree Days 16 (Base 50)    
Moisture  
Dew Point 56 °F    
Average Humidity 84    
Maximum Humidity 100    
Minimum Humidity 48    
Precipitation  
Precipitation 0.00 in - - ()
Sea Level Pressure  
Sea Level Pressure 30.24 in    
Wind  
Wind Speed 0 mph (West)    
Max Wind Speed 4 mph    
Max Gust Speed -    
Visibility 9 miles    
Events Fog    
Averages and records for this station are not official NWS values.
T = Trace of Precipitation, MM = Missing Value Source: NWS Daily Summary

Daily Weather History Graph

Daily Weather History Graph

Search for Another Location

Airport or City:

Astronomy

Sep. 21, 2019 Rise Set
Actual Time 6:57 AM EDT 7:10 PM EDT
Civil Twilight 6:30 AM EDT 7:38 PM EDT
Nautical Twilight 5:58 AM EDT 8:10 PM EDT
Astronomical Twilight 5:25 AM EDT 8:42 PM EDT
Moon 11:44 PM EDT (9/21) 2:04 PM EDT (9/21)
Length of Visible Light 13h 07m
Length of Day
12h 12m
Waning Gibbous, 55% of the Moon is Illuminated
Sep 21
Waning Gibbous
Sep 21
Last Quarter
Sep 28
New
Oct 5
First Quarter
Oct 13
Full

Hourly Weather History & Observations

Time (EDT) Temp. Heat Index Dew Point Humidity Pressure Visibility Wind Dir Wind Speed Gust Speed Precip Events Conditions
12:18 AM 58.5 °F - 53.2 °F 83% 30.25 in 10.0 mi Calm Calm - N/A   Clear
12:36 AM 56.7 °F - 53.8 °F 90% 30.24 in 10.0 mi Calm Calm - N/A   Clear
12:55 AM 55.6 °F - 53.8 °F 94% 30.25 in 10.0 mi Calm Calm - N/A   Clear
1:15 AM 55.8 °F - 53.6 °F 92% 30.25 in 10.0 mi Calm Calm - N/A   Clear
1:39 AM 54.7 °F - 53.6 °F 96% 30.25 in 10.0 mi Calm Calm - N/A   Clear
1:57 AM 55.4 °F - 53.6 °F 94% 30.25 in 10.0 mi Calm Calm - N/A   Clear
2:16 AM 53.4 °F - 52.3 °F 96% 30.25 in 10.0 mi Calm Calm - N/A   Clear
2:35 AM 55.4 °F - 52.5 °F 90% 30.25 in 10.0 mi Calm Calm - N/A   Clear
2:55 AM 53.2 °F - 52.3 °F 97% 30.25 in 10.0 mi Calm Calm - N/A   Clear
3:18 AM 51.8 °F - 51.3 °F 98% 30.25 in 7.0 mi Calm Calm - N/A   Clear
3:36 AM 52.7 °F - 52.2 °F 98% 30.25 in 10.0 mi Calm Calm - N/A   Clear
3:55 AM 52.3 °F - 52.2 °F 99% 30.25 in 7.0 mi Calm Calm - N/A   Clear
4:15 AM 53.4 °F - 52.5 °F 97% 30.25 in 10.0 mi Calm Calm - N/A   Clear
4:39 AM 52.5 °F - 52.0 °F 98% 30.25 in 7.0 mi Calm Calm - N/A   Clear
4:57 AM 52.2 °F - 52.0 °F 99% 30.25 in 7.0 mi Calm Calm - N/A   Clear
5:16 AM 51.4 °F - 51.3 °F 99% 30.26 in 3.0 mi Calm Calm - N/A   Clear
5:35 AM 50.9 °F - 50.9 °F 100% 30.26 in 0.2 mi Calm Calm - N/A Fog Fog
5:53 AM 51.8 °F - 51.8 °F 100% 30.26 in 4.0 mi Calm Calm - N/A   Overcast
6:10 AM 51.8 °F - 51.8 °F 100% 30.26 in 6.0 mi Calm Calm - N/A Fog Scattered Clouds
6:53 AM 50.0 °F - 50.0 °F 100% 30.27 in 7.0 mi Calm Calm - N/A Fog Patches of Fog
7:53 AM 50.0 °F - 50.0 °F 100% 30.28 in 7.0 mi Calm Calm - N/A Fog Patches of Fog
8:53 AM 53.6 °F - 53.6 °F 100% 30.28 in 10.0 mi Calm Calm - N/A   Clear
9:53 AM 60.8 °F - 55.4 °F 82% 30.28 in 10.0 mi Calm Calm - N/A   Scattered Clouds
10:53 AM 68.0 °F - 57.2 °F 68% 30.27 in 10.0 mi Calm Calm - N/A   Scattered Clouds
11:53 AM 73.4 °F - 59.0 °F 61% 30.27 in 10.0 mi Calm Calm - N/A   Clear
12:53 PM 77.0 °F - 60.8 °F 57% 30.25 in 10.0 mi Calm Calm - N/A   Clear
1:53 PM 80.6 °F 81.1 °F 59.0 °F 48% 30.22 in 10.0 mi Calm Calm - N/A   Clear
2:53 PM 80.6 °F 81.5 °F 60.8 °F 51% 30.21 in 10.0 mi Calm Calm - N/A   Scattered Clouds
3:53 PM 82.4 °F 82.9 °F 60.8 °F 48% 30.19 in 10.0 mi Calm Calm - N/A   Scattered Clouds
4:53 PM 80.6 °F 81.5 °F 60.8 °F 51% 30.18 in 10.0 mi Calm Calm - N/A   Scattered Clouds
5:53 PM 78.8 °F - 62.6 °F 57% 30.19 in 10.0 mi Calm Calm - N/A   Scattered Clouds
6:53 PM 77.0 °F - 62.6 °F 61% 30.19 in 10.0 mi Calm Calm - N/A   Scattered Clouds
7:53 PM 73.4 °F - 62.6 °F 69% 30.19 in 10.0 mi Calm Calm - N/A   Clear
8:53 PM 71.6 °F - 62.6 °F 73% 30.20 in 10.0 mi Calm Calm - N/A   Scattered Clouds
9:53 PM 69.8 °F - 62.6 °F 78% 30.22 in 10.0 mi Calm Calm - N/A   Clear
10:16 PM 69.4 °F - 62.8 °F 79% 30.22 in 10.0 mi Calm Calm - N/A   Scattered Clouds
10:36 PM 67.5 °F - 62.6 °F 84% 30.22 in 10.0 mi West 3.5 mph - N/A   Clear
10:59 PM 67.8 °F - 62.1 °F 82% 30.22 in 10.0 mi Calm Calm - N/A   Scattered Clouds
11:17 PM 66.6 °F - 61.7 °F 84% 30.22 in 10.0 mi Calm Calm - N/A   Clear
11:35 PM 67.5 °F - 61.7 °F 82% 30.22 in 10.0 mi Calm Calm - N/A   Scattered Clouds
11:56 PM 64.9 °F - 61.7 °F 89% 30.22 in 10.0 mi Calm Calm - N/A   Scattered Clouds